Time,TemperatureF,DewpointF,PressureIn,WindDirection,WindDirectionDegrees,WindSpeedMPH,WindSpeedGustMPH,Humidity,HourlyPrecipIn,Conditions,Clouds,dailyrainin,SolarRadiationWatts/m^2,SoftwareType,DateUTC
2013-06-11 00:01:00,71.1,69.9,29.99,SW,234,7.0,7.0,96,0.00,RA,,0.00,0.0,WeatherDisplay:10.37,2013-06-11 04:01:00,
2013-06-11 00:02:00,71.1,69.9,29.99,SW,234,6.9,6.9,96,0.00,RA,,0.00,0.0,WeatherDisplay:10.37,2013-06-11 04:02:00,
2013-06-11 00:07:00,71.0,69.8,29.99,SW,234,6.0,6.0,96,0.00,RA,,0.00,0.0,WeatherDisplay:10.37,2013-06-11 04:07:00,
2013-06-11 00:12:00,71.0,69.8,29.99,SW,217,5.8,5.8,96,0.00,CLR,,0.00,0.0,WeatherDisplay:10.37,2013-06-11 04:12:00,
2013-06-11 00:17:00,70.9,69.7,30.00,SW,225,6.9,6.9,96,0.00,CLR,,0.00,0.0,WeatherDisplay:10.37,2013-06-11 04:17:00,
2013-06-11 00:22:00,70.9,69.7,30.00,SW,224,11.5,11.5,96,0.00,CLR,,0.00,0.0,WeatherDisplay:10.37,2013-06-11 04:22:00,
2013-06-11 00:27:00,70.9,69.7,29.99,SW,226,11.5,11.5,96,0.00,CLR,,0.00,0.0,WeatherDisplay:10.37,2013-06-11 04:27:00,
2013-06-11 00:32:00,71.0,69.8,29.99,SW,224,8.1,8.1,96,0.00,CLR,,0.00,0.0,WeatherDisplay:10.37,2013-06-11 04:32:00,
2013-06-11 00:37:00,71.0,69.8,29.99,SW,224,4.6,4.6,96,0.00,CLR,,0.00,0.0,WeatherDisplay:10.37,2013-06-11 04:37:00,
2013-06-11 00:42:00,71.0,69.8,29.99,SW,232,9.2,9.2,96,0.00,CLR,,0.00,0.0,WeatherDisplay:10.37,2013-06-11 04:42:00,
2013-06-11 00:47:00,71.0,69.8,29.99,WSW,240,10.0,10.0,96,0.00,CLR,,0.00,0.0,WeatherDisplay:10.37,2013-06-11 04:47:00,
2013-06-11 00:52:00,71.0,69.8,29.99,WSW,245,10.4,10.4,96,0.00,CLR,,0.00,0.0,WeatherDisplay:10.37,2013-06-11 04:52:00,
2013-06-11 00:57:00,71.0,69.8,29.99,SW,235,11.5,11.5,96,0.00,CLR,,0.00,0.0,WeatherDisplay:10.37,2013-06-11 04:57:00,
2013-06-11 01:02:00,71.0,69.8,29.99,WSW,242,10.4,10.4,96,0.00,CLR,,0.00,0.0,WeatherDisplay:10.37,2013-06-11 05:02:00,
2013-06-11 01:07:00,71.0,69.8,29.98,WSW,238,9.2,9.2,96,0.00,CLR,,0.00,0.0,WeatherDisplay:10.37,2013-06-11 05:07:00,
2013-06-11 01:12:00,71.0,69.8,29.98,SW,236,11.5,11.5,96,0.00,CLR,,0.00,0.0,WeatherDisplay:10.37,2013-06-11 05:12:00,
2013-06-11 01:17:00,71.0,69.8,29.98,WSW,241,10.4,10.4,96,0.00,CLR,,0.00,0.0,WeatherDisplay:10.37,2013-06-11 05:17:00,
2013-06-11 01:22:00,70.9,69.7,29.98,WSW,241,11.5,11.5,96,0.00,CLR,,0.00,0.0,WeatherDisplay:10.37,2013-06-11 05:22:00,
2013-06-11 01:27:00,70.9,69.7,29.98,SW,236,12.0,12.0,96,0.00,CLR,,0.00,0.0,WeatherDisplay:10.37,2013-06-11 05:27:00,
2013-06-11 01:32:00,70.8,69.6,29.97,SW,236,12.7,12.7,96,0.00,CLR,,0.00,0.0,WeatherDisplay:10.37,2013-06-11 05:32:00,
2013-06-11 01:37:00,70.8,69.6,29.97,WSW,239,15.0,15.0,96,0.00,CLR,,0.00,0.0,WeatherDisplay:10.37,2013-06-11 05:37:00,
2013-06-11 01:42:00,70.8,69.6,29.98,WSW,245,10.0,10.0,96,0.00,CLR,,0.00,0.0,WeatherDisplay:10.37,2013-06-11 05:42:00,
2013-06-11 01:47:00,70.9,69.7,29.97,WSW,254,13.8,13.8,96,0.00,CLR,,0.00,0.0,WeatherDisplay:10.37,2013-06-11 05:47:00,
2013-06-11 01:52:00,70.9,69.7,29.98,WSW,257,11.5,11.5,96,0.00,CLR,,0.00,0.0,WeatherDisplay:10.37,2013-06-11 05:52:00,
2013-06-11 01:57:00,71.0,69.8,29.98,WSW,252,9.2,9.2,96,0.00,CLR,,0.00,0.0,WeatherDisplay:10.37,2013-06-11 05:57:00,
2013-06-11 02:02:00,71.0,69.8,29.97,SW,236,12.0,12.0,96,0.00,CLR,,0.00,0.0,WeatherDisplay:10.37,2013-06-11 06:02:00,
2013-06-11 02:07:00,71.0,69.8,29.97,WSW,246,12.7,12.7,96,0.00,CLR,,0.00,0.0,WeatherDisplay:10.37,2013-06-11 06:07:00,
2013-06-11 02:12:00,71.1,69.9,29.97,WSW,245,17.3,17.3,96,0.00,CLR,,0.00,0.0,WeatherDisplay:10.37,2013-06-11 06:12:00,
2013-06-11 02:17:00,71.1,69.6,29.97,WSW,242,17.3,17.3,95,0.00,CLR,,0.00,0.0,WeatherDisplay:10.37,2013-06-11 06:17:00,
2013-06-11 02:22:00,71.1,69.6,29.96,West,261,17.3,17.3,95,0.00,CLR,,0.00,0.0,WeatherDisplay:10.37,2013-06-11 06:22:00,
2013-06-11 02:27:00,71.1,69.6,29.97,WSW,245,15.0,15.0,95,0.00,CLR,,0.00,0.0,WeatherDisplay:10.37,2013-06-11 06:27:00,
2013-06-11 02:32:00,71.1,69.6,29.97,West,262,17.3,17.3,95,0.00,CLR,,0.00,0.0,WeatherDisplay:10.37,2013-06-11 06:32:00,
2013-06-11 02:37:00,71.1,69.6,29.97,West,267,11.5,11.5,95,0.00,CLR,,0.00,0.0,WeatherDisplay:10.37,2013-06-11 06:37:00,
2013-06-11 02:42:00,71.1,69.6,29.97,WSW,238,17.3,17.3,95,0.00,CLR,,0.00,0.0,WeatherDisplay:10.37,2013-06-11 06:42:00,
2013-06-11 02:47:00,71.2,69.7,29.97,WSW,240,18.4,18.4,95,0.00,CLR,,0.00,0.0,WeatherDisplay:10.37,2013-06-11 06:47:00,
2013-06-11 02:52:00,71.2,69.4,29.96,West,267,16.1,16.1,94,0.00,CLR,,0.00,0.0,WeatherDisplay:10.37,2013-06-11 06:52:00,
2013-06-11 02:57:00,71.3,69.5,29.96,West,262,17.3,17.3,94,0.00,CLR,,0.00,0.0,WeatherDisplay:10.37,2013-06-11 06:57:00,
2013-06-11 03:02:00,71.4,69.6,29.96,West,269,13.8,13.8,94,0.00,CLR,,0.00,0.0,WeatherDisplay:10.37,2013-06-11 07:02:00,
2013-06-11 03:07:00,71.4,69.6,29.96,WSW,238,16.1,16.1,94,0.00,CLR,,0.00,0.0,WeatherDisplay:10.37,2013-06-11 07:07:00,
2013-06-11 03:13:00,71.4,69.6,29.96,SW,226,18.4,18.4,94,0.00,CLR,,0.00,0.0,WeatherDisplay:10.37,2013-06-11 07:13:00,
2013-06-11 03:18:00,71.5,69.7,29.96,WSW,257,17.3,17.3,94,0.00,CLR,,0.00,0.0,WeatherDisplay:10.37,2013-06-11 07:18:00,
2013-06-11 03:23:00,71.5,69.7,29.95,WSW,246,15.0,15.0,94,0.00,CLR,,0.00,0.0,WeatherDisplay:10.37,2013-06-11 07:23:00,
2013-06-11 03:28:00,71.5,69.7,29.95,West,261,19.6,19.6,94,0.00,CLR,,0.00,0.0,WeatherDisplay:10.37,2013-06-11 07:28:00,
2013-06-11 03:33:00,71.5,69.7,29.95,West,275,15.0,15.0,94,0.00,CLR,,0.00,0.0,WeatherDisplay:10.37,2013-06-11 07:33:00,
2013-06-11 03:38:00,71.7,69.6,29.95,West,267,12.0,12.0,93,0.00,CLR,,0.00,0.0,WeatherDisplay:10.37,2013-06-11 07:38:00,
2013-06-11 03:43:00,71.9,69.4,29.95,WSW,252,15.0,15.0,92,0.00,CLR,,0.00,0.0,WeatherDisplay:10.37,2013-06-11 07:43:00,
2013-06-11 03:48:00,72.0,69.5,29.95,WSW,252,17.3,17.3,92,0.00,CLR,,0.00,0.0,WeatherDisplay:10.37,2013-06-11 07:48:00,
2013-06-11 03:53:00,72.0,69.5,29.96,WNW,285,21.0,21.0,92,0.00,CLR,,0.00,0.0,WeatherDisplay:10.37,2013-06-11 07:53:00,
2013-06-11 03:58:00,72.2,69.7,29.96,West,265,20.7,20.7,92,0.00,CLR,,0.00,0.0,WeatherDisplay:10.37,2013-06-11 07:58:00,
2013-06-11 04:03:00,72.3,69.5,29.96,West,272,17.3,17.3,91,0.00,CLR,,0.00,0.0,WeatherDisplay:10.37,2013-06-11 08:03:00,
2013-06-11 04:08:00,72.2,69.7,29.96,West,269,13.8,13.8,92,0.00,CLR,,0.00,0.0,WeatherDisplay:10.37,2013-06-11 08:08:00,
2013-06-11 04:13:00,72.2,69.7,29.96,West,279,11.5,11.5,92,0.00,CLR,,0.00,0.0,WeatherDisplay:10.37,2013-06-11 08:13:00,
2013-06-11 04:18:00,72.1,69.6,29.96,West,272,3.5,0.0,92,0.00,CLR,,0.00,0.0,WeatherDisplay:10.37,2013-06-11 08:18:00,
2013-06-11 04:23:00,72.0,69.2,29.96,WNW,292,12.7,12.7,91,0.00,CLR,,0.00,0.0,WeatherDisplay:10.37,2013-06-11 08:23:00,
2013-06-11 04:28:00,72.0,69.2,29.96,WSW,251,12.7,12.7,91,0.00,CLR,,0.00,0.0,WeatherDisplay:10.37,2013-06-11 08:28:00,
2013-06-11 04:33:00,71.9,68.8,29.96,West,269,13.8,13.8,90,0.00,CLR,,0.00,0.0,WeatherDisplay:10.37,2013-06-11 08:33:00,
2013-06-11 04:38:00,71.9,69.1,29.96,WNW,286,10.4,10.4,91,0.00,CLR,,0.00,0.0,WeatherDisplay:10.37,2013-06-11 08:38:00,
2013-06-11 04:43:00,71.9,69.1,29.96,West,261,10.4,10.4,91,0.00,CLR,,0.00,0.0,WeatherDisplay:10.37,2013-06-11 08:43:00,
2013-06-11 04:48:00,71.9,69.1,29.96,WNW,288,17.3,17.3,91,0.00,CLR,,0.00,0.0,WeatherDisplay:10.37,2013-06-11 08:48:00,
2013-06-11 04:53:00,71.9,69.1,29.96,West,281,13.8,13.8,91,0.00,CLR,,0.00,0.0,WeatherDisplay:10.37,2013-06-11 08:53:00,
2013-06-11 04:58:00,71.9,69.1,29.96,West,275,12.7,12.7,91,0.00,CLR,,0.00,0.0,WeatherDisplay:10.37,2013-06-11 08:58:00,
2013-06-11 05:03:00,71.8,69.3,29.96,WNW,286,12.7,12.7,92,0.00,CLR,,0.00,0.0,WeatherDisplay:10.37,2013-06-11 09:03:00,
2013-06-11 05:08:00,71.7,69.3,29.96,WNW,298,13.8,13.8,92,0.01,RA,,0.01,0.0,WeatherDisplay:10.37,2013-06-11 09:08:00,
2013-06-11 05:13:00,71.7,69.6,29.96,WNW,287,8.0,8.0,93,0.02,RA,,0.02,0.0,WeatherDisplay:10.37,2013-06-11 09:13:00,
2013-06-11 05:18:00,71.5,69.4,29.96,WNW,285,6.9,6.9,93,0.02,RA,,0.02,0.0,WeatherDisplay:10.37,2013-06-11 09:18:00,
2013-06-11 05:23:00,71.3,69.2,29.96,WNW,290,11.5,11.5,93,0.02,CLR,,0.02,0.0,WeatherDisplay:10.37,2013-06-11 09:23:00,
2013-06-11 05:28:00,71.3,69.5,29.97,WNW,287,11.5,11.5,94,0.02,CLR,,0.02,0.0,WeatherDisplay:10.37,2013-06-11 09:28:00,
2013-06-11 05:33:00,71.2,69.4,29.97,WNW,286,5.8,5.8,94,0.02,CLR,,0.02,0.0,WeatherDisplay:10.37,2013-06-11 09:33:00,
2013-06-11 05:38:00,71.2,69.4,29.97,West,267,10.4,10.4,94,0.02,CLR,,0.02,0.0,WeatherDisplay:10.37,2013-06-11 09:38:00,
2013-06-11 05:43:00,71.1,69.6,29.97,WSW,255,11.5,11.5,95,0.02,CLR,,0.02,0.0,WeatherDisplay:10.37,2013-06-11 09:43:00,
2013-06-11 05:48:00,71.0,69.5,29.97,WNW,289,11.5,11.5,95,0.02,CLR,,0.02,0.0,WeatherDisplay:10.37,2013-06-11 09:48:00,
2013-06-11 05:53:00,71.0,69.5,29.97,WNW,282,8.0,8.0,95,0.02,CLR,,0.02,0.0,WeatherDisplay:10.37,2013-06-11 09:53:00,
2013-06-11 05:58:00,71.0,69.5,29.98,West,273,11.5,11.5,95,0.02,CLR,,0.02,0.0,WeatherDisplay:10.37,2013-06-11 09:58:00,
2013-06-11 06:03:00,71.0,69.5,29.98,West,275,11.5,11.5,95,0.02,CLR,,0.02,0.0,WeatherDisplay:10.37,2013-06-11 10:03:00,
2013-06-11 06:08:00,71.0,69.2,29.98,WNW,300,8.1,8.1,94,0.01,CLR,,0.02,0.0,WeatherDisplay:10.37,2013-06-11 10:08:00,
2013-06-11 06:13:00,70.9,69.1,29.98,West,279,15.0,15.0,94,0.00,CLR,,0.02,0.0,WeatherDisplay:10.37,2013-06-11 10:13:00,
2013-06-11 06:18:00,70.9,69.1,29.98,West,270,16.1,16.1,94,0.00,CLR,,0.02,0.0,WeatherDisplay:10.37,2013-06-11 10:18:00,
2013-06-11 06:23:00,70.8,69.0,29.98,WNW,299,11.5,11.5,94,0.00,CLR,,0.02,0.0,WeatherDisplay:10.37,2013-06-11 10:23:00,
2013-06-11 06:28:00,70.7,68.6,29.99,WNW,293,12.7,12.7,93,0.00,CLR,,0.02,0.0,WeatherDisplay:10.37,2013-06-11 10:28:00,
2013-06-11 06:33:00,70.6,68.5,29.99,WSW,246,17.3,17.3,93,0.00,CLR,,0.02,7.0,WeatherDisplay:10.37,2013-06-11 10:33:00,
2013-06-11 06:38:00,70.6,68.5,29.99,WNW,286,10.4,10.4,93,0.00,CLR,,0.02,11.0,WeatherDisplay:10.37,2013-06-11 10:38:00,
2013-06-11 06:43:00,70.5,68.7,29.99,WNW,295,4.6,4.6,94,0.00,CLR,,0.02,16.0,WeatherDisplay:10.37,2013-06-11 10:43:00,
2013-06-11 06:48:00,70.4,68.6,30.00,WNW,288,4.6,4.6,94,0.00,CLR,,0.02,23.0,WeatherDisplay:10.37,2013-06-11 10:48:00,
2013-06-11 06:53:00,70.4,68.6,30.00,WNW,286,6.9,6.9,94,0.00,CLR,,0.02,33.0,WeatherDisplay:10.37,2013-06-11 10:53:00,
2013-06-11 06:58:00,70.3,68.8,30.00,West,263,10.4,10.4,95,0.00,CLR,,0.02,46.0,WeatherDisplay:10.37,2013-06-11 10:58:00,
2013-06-11 07:03:00,70.3,68.8,30.00,West,267,4.6,4.6,95,0.00,CLR,,0.02,53.0,WeatherDisplay:10.37,2013-06-11 11:03:00,
2013-06-11 07:08:00,70.4,68.9,30.00,West,272,10.4,10.4,95,0.00,CLR,,0.02,39.0,WeatherDisplay:10.37,2013-06-11 11:08:00,
2013-06-11 07:13:00,70.5,69.0,30.00,West,272,0.0,1.2,95,0.00,CLR,,0.02,47.0,WeatherDisplay:10.37,2013-06-11 11:13:00,
2013-06-11 07:18:00,70.7,69.2,30.00,West,273,5.8,5.8,95,0.00,CLR,,0.02,91.0,WeatherDisplay:10.37,2013-06-11 11:18:00,
2013-06-11 07:23:00,70.8,69.3,30.00,West,277,10.4,10.4,95,0.00,CLR,,0.02,32.0,WeatherDisplay:10.37,2013-06-11 11:23:00,
2013-06-11 07:28:00,70.9,69.4,30.00,West,277,10.4,10.4,95,0.00,CLR,,0.02,62.0,WeatherDisplay:10.37,2013-06-11 11:28:00,
2013-06-11 07:33:00,71.0,69.5,30.00,West,275,6.9,6.9,95,0.00,CLR,,0.02,97.0,WeatherDisplay:10.37,2013-06-11 11:33:00,
2013-06-11 07:38:00,71.0,69.5,30.01,West,275,10.4,10.4,95,0.00,CLR,,0.02,93.0,WeatherDisplay:10.37,2013-06-11 11:38:00,
2013-06-11 07:43:00,71.1,69.6,30.01,West,272,6.9,6.9,95,0.00,CLR,,0.02,79.0,WeatherDisplay:10.37,2013-06-11 11:43:00,
2013-06-11 07:48:00,71.2,69.4,30.01,West,275,9.0,9.0,94,0.00,CLR,,0.02,218.0,WeatherDisplay:10.37,2013-06-11 11:48:00,
2013-06-11 07:53:00,71.3,69.5,30.01,West,267,11.5,11.5,94,0.00,CLR,,0.02,84.0,WeatherDisplay:10.37,2013-06-11 11:53:00,
2013-06-11 07:58:00,71.5,69.7,30.01,West,279,11.5,11.5,94,0.00,CLR,,0.02,237.0,WeatherDisplay:10.37,2013-06-11 11:58:00,
2013-06-11 08:03:00,71.9,70.1,30.01,West,273,12.0,12.0,94,0.00,OVC,,0.02,287.0,WeatherDisplay:10.37,2013-06-11 12:03:00,
2013-06-11 08:08:00,72.2,70.4,30.01,West,276,6.9,6.9,94,0.00,OVC,,0.02,306.0,WeatherDisplay:10.37,2013-06-11 12:08:00,
2013-06-11 08:13:00,72.5,70.7,30.01,West,276,6.0,6.0,94,0.00,OVC,,0.02,209.0,WeatherDisplay:10.37,2013-06-11 12:13:00,
2013-06-11 08:18:00,72.6,70.5,30.02,West,275,11.5,11.5,93,0.00,OVC,,0.02,267.0,WeatherDisplay:10.37,2013-06-11 12:18:00,
2013-06-11 08:23:00,72.8,70.3,30.01,WSW,242,11.5,11.5,92,0.00,OVC,,0.02,204.0,WeatherDisplay:10.37,2013-06-11 12:23:00,
2013-06-11 08:28:00,72.9,70.8,30.02,WSW,242,4.6,4.6,93,0.00,OVC,,0.02,341.0,WeatherDisplay:10.37,2013-06-11 12:28:00,
2013-06-11 08:33:00,73.0,70.5,30.02,WSW,244,11.5,11.5,92,0.00,OVC,,0.02,90.0,WeatherDisplay:10.37,2013-06-11 12:33:00,
2013-06-11 08:38:00,72.9,70.8,30.02,WSW,244,10.4,10.4,93,0.00,OVC,,0.02,63.0,WeatherDisplay:10.37,2013-06-11 12:38:00,
2013-06-11 08:43:00,72.8,70.3,30.02,West,271,9.2,9.2,92,0.00,OVC,,0.02,158.0,WeatherDisplay:10.37,2013-06-11 12:43:00,
2013-06-11 08:48:00,72.7,70.6,30.02,West,271,5.8,5.8,93,0.00,OVC,,0.02,118.0,WeatherDisplay:10.37,2013-06-11 12:48:00,
2013-06-11 08:53:00,72.7,70.6,30.02,West,271,9.2,9.2,93,0.00,OVC,,0.02,130.0,WeatherDisplay:10.37,2013-06-11 12:53:00,
2013-06-11 08:58:00,72.7,70.2,30.02,West,276,10.4,10.4,92,0.00,OVC,,0.02,237.0,WeatherDisplay:10.37,2013-06-11 12:58:00,
2013-06-11 09:03:00,72.9,70.4,30.02,NW,314,11.5,11.5,92,0.00,OVC,,0.02,339.0,WeatherDisplay:10.37,2013-06-11 13:03:00,
2013-06-11 09:09:00,73.2,70.7,30.02,West,276,11.5,11.5,92,0.00,OVC,,0.02,190.0,WeatherDisplay:10.37,2013-06-11 13:09:00,
2013-06-11 09:14:00,73.3,70.5,30.02,WSW,258,13.8,13.8,91,0.00,OVC,,0.02,169.0,WeatherDisplay:10.37,2013-06-11 13:14:00,
2013-06-11 09:19:00,73.4,70.6,30.02,West,273,11.5,11.5,91,0.00,OVC,,0.02,216.0,WeatherDisplay:10.37,2013-06-11 13:19:00,
2013-06-11 09:24:00,73.4,70.6,30.03,West,277,15.0,15.0,91,0.00,OVC,,0.02,246.0,WeatherDisplay:10.37,2013-06-11 13:24:00,
2013-06-11 09:29:00,73.5,70.7,30.03,West,267,11.5,11.5,91,0.00,OVC,,0.02,376.0,WeatherDisplay:10.37,2013-06-11 13:29:00,
2013-06-11 09:34:00,73.9,71.1,30.02,West,270,8.1,8.1,91,0.00,OVC,,0.02,441.0,WeatherDisplay:10.37,2013-06-11 13:34:00,
2013-06-11 09:39:00,74.2,71.4,30.03,West,274,10.4,10.4,91,0.00,OVC,,0.02,343.0,WeatherDisplay:10.37,2013-06-11 13:39:00,
2013-06-11 09:44:00,74.2,71.1,30.03,West,277,8.1,8.1,90,0.00,OVC,,0.02,246.0,WeatherDisplay:10.37,2013-06-11 13:44:00,
2013-06-11 09:49:00,74.2,70.7,30.03,West,277,11.5,11.5,89,0.00,OVC,,0.02,188.0,WeatherDisplay:10.37,2013-06-11 13:49:00,
2013-06-11 09:54:00,74.2,71.1,30.03,WNW,288,9.2,9.2,90,0.00,OVC,,0.02,504.0,WeatherDisplay:10.37,2013-06-11 13:54:00,
2013-06-11 09:59:00,74.3,70.8,30.03,West,273,12.0,12.0,89,0.00,OVC,,0.02,306.0,WeatherDisplay:10.37,2013-06-11 13:59:00,
2013-06-11 10:04:00,74.3,70.8,30.03,West,268,5.0,5.0,89,0.00,OVC,,0.02,290.0,WeatherDisplay:10.37,2013-06-11 14:04:00,
2013-06-11 10:09:00,74.5,71.4,30.03,WNW,298,6.9,6.9,90,0.00,OVC,,0.02,443.0,WeatherDisplay:10.37,2013-06-11 14:09:00,
2013-06-11 10:14:00,74.7,70.9,30.03,WNW,297,9.2,9.2,88,0.00,OVC,,0.02,306.0,WeatherDisplay:10.37,2013-06-11 14:14:00,
2013-06-11 10:19:00,74.7,71.2,30.03,WNW,296,3.5,3.5,89,0.00,OVC,,0.02,338.0,WeatherDisplay:10.37,2013-06-11 14:19:00,
2013-06-11 10:24:00,74.8,71.0,30.03,WNW,291,11.5,11.5,88,0.00,OVC,,0.02,327.0,WeatherDisplay:10.37,2013-06-11 14:24:00,
2013-06-11 10:29:00,74.7,70.9,30.03,West,272,12.7,12.7,88,0.00,OVC,,0.02,418.0,WeatherDisplay:10.37,2013-06-11 14:29:00,
2013-06-11 10:34:00,75.0,71.2,30.03,West,276,12.7,12.7,88,0.00,OVC,,0.02,371.0,WeatherDisplay:10.37,2013-06-11 14:34:00,
2013-06-11 10:39:00,75.2,71.4,30.03,West,267,13.8,13.8,88,0.00,OVC,,0.02,332.0,WeatherDisplay:10.37,2013-06-11 14:39:00,
2013-06-11 10:44:00,75.3,71.2,30.03,West,279,9.2,9.2,87,0.00,OVC,,0.02,279.0,WeatherDisplay:10.37,2013-06-11 14:44:00,
2013-06-11 10:49:00,75.5,71.4,30.03,WNW,283,8.1,8.1,87,0.00,OVC,,0.02,422.0,WeatherDisplay:10.37,2013-06-11 14:49:00,
2013-06-11 10:54:00,75.9,71.8,30.03,West,275,11.5,11.5,87,0.00,OVC,,0.02,809.0,WeatherDisplay:10.37,2013-06-11 14:54:00,
2013-06-11 10:59:00,75.8,71.0,30.03,West,281,11.5,11.5,85,0.00,OVC,,0.02,343.0,WeatherDisplay:10.37,2013-06-11 14:59:00,
2013-06-11 11:04:00,76.0,71.8,30.03,WNW,301,5.8,5.8,87,0.00,OVC,,0.02,835.0,WeatherDisplay:10.37,2013-06-11 15:04:00,
2013-06-11 11:09:00,76.3,72.5,30.03,WNW,292,5.8,5.8,88,0.00,OVC,,0.02,907.0,WeatherDisplay:10.37,2013-06-11 15:09:00,
2013-06-11 11:14:00,76.6,72.1,30.03,WNW,290,16.0,16.0,86,0.00,OVC,,0.02,907.0,WeatherDisplay:10.37,2013-06-11 15:14:00,
2013-06-11 11:19:00,76.9,72.0,30.03,West,277,10.4,10.4,85,0.00,OVC,,0.02,1014.0,WeatherDisplay:10.37,2013-06-11 15:19:00,
2013-06-11 11:24:00,77.3,72.1,30.03,West,279,12.7,12.7,84,0.00,CLR,,0.02,436.0,WeatherDisplay:10.37,2013-06-11 15:24:00,
2013-06-11 11:29:00,77.2,71.6,30.03,West,265,13.8,13.8,83,0.00,CLR,,0.02,241.0,WeatherDisplay:10.37,2013-06-11 15:29:00,
2013-06-11 11:34:00,76.9,72.4,30.03,West,267,4.6,4.6,86,0.00,CLR,,0.02,353.0,WeatherDisplay:10.37,2013-06-11 15:34:00,
2013-06-11 11:39:00,77.2,72.3,30.02,West,281,9.2,9.2,85,0.00,CLR,,0.02,413.0,WeatherDisplay:10.37,2013-06-11 15:39:00,
2013-06-11 11:44:00,77.7,72.8,30.02,NW,321,9.2,9.2,85,0.00,CLR,,0.02,814.0,WeatherDisplay:10.37,2013-06-11 15:44:00,
2013-06-11 11:49:00,78.0,72.1,30.02,WSW,248,11.5,11.5,82,0.00,CLR,,0.02,958.0,WeatherDisplay:10.37,2013-06-11 15:49:00,
2013-06-11 11:54:00,78.1,72.2,30.02,West,281,11.5,11.5,82,0.00,CLR,,0.02,1065.0,WeatherDisplay:10.37,2013-06-11 15:54:00,
2013-06-11 11:59:00,78.1,72.2,30.02,WSW,255,17.3,17.3,82,0.00,CLR,,0.02,343.0,WeatherDisplay:10.37,2013-06-11 15:59:00,
2013-06-11 12:04:00,78.5,72.2,30.02,NNW,331,16.1,16.1,81,0.00,CLR,,0.02,383.0,WeatherDisplay:10.37,2013-06-11 16:04:00,
2013-06-11 12:09:00,78.8,72.8,30.02,WNW,285,13.0,13.0,82,0.00,CLR,,0.02,991.0,WeatherDisplay:10.37,2013-06-11 16:09:00,
2013-06-11 12:14:00,79.0,72.7,30.02,WNW,288,10.4,10.4,81,0.00,CLR,,0.02,294.0,WeatherDisplay:10.37,2013-06-11 16:14:00,
2013-06-11 12:19:00,79.2,72.9,30.02,WNW,292,11.5,11.5,81,0.00,CLR,,0.02,882.0,WeatherDisplay:10.37,2013-06-11 16:19:00,
2013-06-11 12:24:00,79.4,72.3,30.02,WNW,284,4.6,4.6,79,0.00,CLR,,0.02,983.0,WeatherDisplay:10.37,2013-06-11 16:24:00,
2013-06-11 12:29:00,79.6,72.1,30.02,WNW,283,16.1,16.1,78,0.00,CLR,,0.02,997.0,WeatherDisplay:10.37,2013-06-11 16:29:00,
2013-06-11 12:34:00,79.7,72.6,30.02,West,281,15.0,15.0,79,0.00,CLR,,0.02,1014.0,WeatherDisplay:10.37,2013-06-11 16:34:00,
2013-06-11 12:39:00,79.5,72.0,30.01,NW,306,13.8,13.8,78,0.00,CLR,,0.02,960.0,WeatherDisplay:10.37,2013-06-11 16:39:00,
2013-06-11 12:44:00,79.7,73.3,30.01,WNW,285,11.5,11.5,81,0.00,CLR,,0.02,970.0,WeatherDisplay:10.37,2013-06-11 16:44:00,
2013-06-11 12:49:00,79.8,72.3,30.01,WNW,298,16.1,16.1,78,0.00,CLR,,0.02,434.0,WeatherDisplay:10.37,2013-06-11 16:49:00,
2013-06-11 12:54:00,79.8,71.9,30.01,NW,317,13.8,13.8,77,0.00,CLR,,0.02,274.0,WeatherDisplay:10.37,2013-06-11 16:54:00,
2013-06-11 12:59:00,79.7,71.8,30.01,WSW,243,13.8,13.8,77,0.00,CLR,,0.02,1153.0,WeatherDisplay:10.37,2013-06-11 16:59:00,
2013-06-11 13:04:00,79.8,72.3,30.01,WNW,302,13.8,13.8,78,0.00,CLR,,0.02,1136.0,WeatherDisplay:10.37,2013-06-11 17:04:00,
2013-06-11 13:09:00,80.0,72.1,30.01,WNW,300,15.0,15.0,77,0.00,CLR,,0.02,1067.0,WeatherDisplay:10.37,2013-06-11 17:09:00,
2013-06-11 13:14:00,80.3,73.2,30.01,WNW,285,10.4,10.4,79,0.00,CLR,,0.02,1041.0,WeatherDisplay:10.37,2013-06-11 17:14:00,
2013-06-11 13:19:00,80.5,72.2,30.00,WNW,303,12.7,12.7,76,0.00,CLR,,0.02,976.0,WeatherDisplay:10.37,2013-06-11 17:19:00,
2013-06-11 13:24:00,80.7,72.4,30.00,WNW,303,18.4,18.4,76,0.00,CLR,,0.02,965.0,WeatherDisplay:10.37,2013-06-11 17:24:00,
2013-06-11 13:29:00,80.9,72.6,30.00,WNW,287,19.6,19.6,76,0.00,CLR,,0.02,998.0,WeatherDisplay:10.37,2013-06-11 17:29:00,
2013-06-11 13:34:00,80.9,73.4,30.00,West,259,18.4,18.4,78,0.00,CLR,,0.02,610.0,WeatherDisplay:10.37,2013-06-11 17:34:00,
2013-06-11 13:39:00,81.1,72.4,30.00,WNW,284,16.1,16.1,75,0.00,CLR,,0.02,1065.0,WeatherDisplay:10.37,2013-06-11 17:39:00,
2013-06-11 13:44:00,81.3,73.8,30.00,WNW,294,12.0,12.0,78,0.00,CLR,,0.02,1034.0,WeatherDisplay:10.37,2013-06-11 17:44:00,
2013-06-11 13:49:00,81.2,73.7,30.00,West,270,17.3,17.3,78,0.00,CLR,,0.02,1053.0,WeatherDisplay:10.37,2013-06-11 17:49:00,
2013-06-11 13:54:00,81.3,73.8,29.99,WNW,298,9.2,9.2,78,0.00,CLR,,0.02,1097.0,WeatherDisplay:10.37,2013-06-11 17:54:00,
2013-06-11 13:59:00,81.6,72.5,29.99,WNW,291,19.6,19.6,74,0.00,CLR,,0.02,1025.0,WeatherDisplay:10.37,2013-06-11 17:59:00,
2013-06-11 14:04:00,81.6,72.5,29.99,WNW,295,9.0,9.0,74,0.00,BKN,,0.02,229.0,WeatherDisplay:10.37,2013-06-11 18:04:00,
2013-06-11 14:09:00,81.1,72.4,29.99,West,281,12.7,12.7,75,0.00,SCT,,0.02,274.0,WeatherDisplay:10.37,2013-06-11 18:09:00,
2013-06-11 14:14:00,80.9,73.4,29.99,WNW,294,13.8,13.8,78,0.00,CLR,,0.02,1027.0,WeatherDisplay:10.37,2013-06-11 18:14:00,
2013-06-11 14:19:00,81.3,74.9,29.99,WNW,296,11.5,11.5,81,0.00,CLR,,0.02,1037.0,WeatherDisplay:10.37,2013-06-11 18:19:00,
2013-06-11 14:24:00,81.6,73.3,29.98,West,271,15.0,15.0,76,0.00,CLR,,0.02,1063.0,WeatherDisplay:10.37,2013-06-11 18:24:00,
2013-06-11 14:29:00,81.7,73.4,29.99,WNW,298,15.0,15.0,76,0.00,SCT,,0.02,251.0,WeatherDisplay:10.37,2013-06-11 18:29:00,
2013-06-11 14:34:00,81.8,73.9,29.99,WNW,300,11.5,11.5,77,0.00,CLR,,0.02,1102.0,WeatherDisplay:10.37,2013-06-11 18:34:00,
2013-06-11 14:39:00,82.0,72.5,29.99,NW,305,13.8,13.8,73,0.00,CLR,,0.02,197.0,WeatherDisplay:10.37,2013-06-11 18:39:00,
2013-06-11 14:44:00,81.9,72.8,29.99,NW,321,10.4,10.4,74,0.00,CLR,,0.02,1179.0,WeatherDisplay:10.37,2013-06-11 18:44:00,
2013-06-11 14:49:00,82.1,73.0,29.99,NW,310,15.0,15.0,74,0.00,CLR,,0.02,591.0,WeatherDisplay:10.37,2013-06-11 18:49:00,
2013-06-11 14:54:00,82.4,74.5,29.99,West,281,16.0,16.0,77,0.00,CLR,,0.02,591.0,WeatherDisplay:10.37,2013-06-11 18:54:00,
2013-06-11 14:59:00,82.3,72.8,29.99,WNW,297,19.6,19.6,73,0.00,CLR,,0.02,1042.0,WeatherDisplay:10.37,2013-06-11 18:59:00,
2013-06-11 15:04:00,82.0,72.1,29.99,West,281,11.5,11.5,72,0.00,BKN,,0.02,243.0,WeatherDisplay:10.37,2013-06-11 19:04:00,
2013-06-11 15:09:00,81.5,72.4,29.98,NW,319,16.1,16.1,74,0.00,CLR,,0.02,1037.0,WeatherDisplay:10.37,2013-06-11 19:09:00,
2013-06-11 15:14:00,81.4,71.5,29.98,NNW,338,15.0,15.0,72,0.00,BKN,,0.02,239.0,WeatherDisplay:10.37,2013-06-11 19:14:00,
2013-06-11 15:19:00,81.7,73.8,29.98,WNW,293,5.8,5.8,77,0.00,CLR,,0.02,972.0,WeatherDisplay:10.37,2013-06-11 19:19:00,
2013-06-11 15:24:00,81.8,71.5,29.99,NNW,340,12.0,12.0,71,0.00,BKN,,0.02,236.0,WeatherDisplay:10.37,2013-06-11 19:24:00,
2013-06-11 15:29:00,81.7,72.2,29.98,NW,304,6.9,6.9,73,0.00,BKN,,0.02,262.0,WeatherDisplay:10.37,2013-06-11 19:29:00,
2013-06-11 15:34:00,81.8,72.7,29.99,WNW,289,13.0,13.0,74,0.00,FEW,,0.02,227.0,WeatherDisplay:10.37,2013-06-11 19:34:00,
2013-06-11 15:39:00,82.1,72.2,29.98,West,266,15.0,15.0,72,0.00,CLR,,0.02,1005.0,WeatherDisplay:10.37,2013-06-11 19:39:00,
2013-06-11 15:44:00,82.5,72.1,29.98,West,280,12.7,12.7,71,0.00,SCT,,0.02,547.0,WeatherDisplay:10.37,2013-06-11 19:44:00,
2013-06-11 15:49:00,82.9,72.5,29.98,WNW,283,19.6,19.6,71,0.00,CLR,,0.02,933.0,WeatherDisplay:10.37,2013-06-11 19:49:00,
2013-06-11 15:55:00,83.1,72.3,29.98,West,269,13.8,13.8,70,0.00,CLR,,0.02,953.0,WeatherDisplay:10.37,2013-06-11 19:55:00,
2013-06-11 16:00:00,83.4,71.7,29.98,WNW,303,5.8,5.8,68,0.00,CLR,,0.02,949.0,WeatherDisplay:10.37,2013-06-11 20:00:00,
2013-06-11 16:05:00,83.2,73.2,29.98,WNW,294,12.0,12.0,72,0.00,CLR,,0.02,933.0,WeatherDisplay:10.37,2013-06-11 20:05:00,
2013-06-11 16:10:00,83.0,70.9,29.98,NNW,337,13.8,13.8,67,0.00,BKN,,0.02,178.0,WeatherDisplay:10.37,2013-06-11 20:10:00,
2013-06-11 16:15:00,82.8,71.6,29.97,WNW,288,15.0,15.0,69,0.00,CLR,,0.02,904.0,WeatherDisplay:10.37,2013-06-11 20:15:00,
2013-06-11 16:20:00,82.8,71.6,29.97,WNW,282,15.0,15.0,69,0.00,CLR,,0.02,812.0,WeatherDisplay:10.37,2013-06-11 20:20:00,
2013-06-11 16:25:00,83.0,71.8,29.97,WNW,298,16.1,16.1,69,0.00,FEW,,0.02,789.0,WeatherDisplay:10.37,2013-06-11 20:25:00,
2013-06-11 16:30:00,83.1,72.3,29.97,WNW,293,11.5,11.5,70,0.00,FEW,,0.02,772.0,WeatherDisplay:10.37,2013-06-11 20:30:00,
2013-06-11 16:35:00,83.3,71.6,29.97,West,265,11.5,11.5,68,0.00,FEW,,0.02,759.0,WeatherDisplay:10.37,2013-06-11 20:35:00,
2013-06-11 16:40:00,83.3,71.2,29.97,WNW,284,6.9,6.9,67,0.00,FEW,,0.02,770.0,WeatherDisplay:10.37,2013-06-11 20:40:00,
2013-06-11 16:45:00,83.5,71.4,29.97,WSW,257,15.0,15.0,67,0.00,FEW,,0.02,817.0,WeatherDisplay:10.37,2013-06-11 20:45:00,
2013-06-11 16:50:00,83.4,71.7,29.97,NW,309,6.9,6.9,68,0.00,SCT,,0.02,729.0,WeatherDisplay:10.37,2013-06-11 20:50:00,
2013-06-11 16:55:00,83.5,70.5,29.97,WNW,282,17.3,17.3,65,0.00,SCT,,0.02,700.0,WeatherDisplay:10.37,2013-06-11 20:55:00,
2013-06-11 17:00:00,83.4,71.7,29.97,WNW,282,12.7,12.7,68,0.00,SCT,,0.02,698.0,WeatherDisplay:10.37,2013-06-11 21:00:00,
2013-06-11 17:05:00,83.6,71.5,29.97,West,259,13.8,13.8,67,0.00,SCT,,0.02,679.0,WeatherDisplay:10.37,2013-06-11 21:05:00,
2013-06-11 17:10:00,83.8,71.2,29.97,West,273,12.7,12.7,66,0.00,SCT,,0.02,666.0,WeatherDisplay:10.37,2013-06-11 21:10:00,
2013-06-11 17:15:00,83.8,72.1,29.97,WNW,299,6.9,6.9,68,0.00,SCT,,0.02,649.0,WeatherDisplay:10.37,2013-06-11 21:15:00,
2013-06-11 17:20:00,83.8,71.2,29.97,West,269,15.0,15.0,66,0.00,SCT,,0.02,645.0,WeatherDisplay:10.37,2013-06-11 21:20:00,
2013-06-11 17:25:00,83.6,71.5,29.97,West,277,11.5,11.5,67,0.00,SCT,,0.02,603.0,WeatherDisplay:10.37,2013-06-11 21:25:00,
2013-06-11 17:30:00,83.5,71.4,29.97,WNW,287,10.4,10.4,67,0.00,BKN,,0.02,573.0,WeatherDisplay:10.37,2013-06-11 21:30:00,
2013-06-11 17:35:00,83.4,71.7,29.97,WNW,290,9.2,9.2,68,0.00,SCT,,0.02,580.0,WeatherDisplay:10.37,2013-06-11 21:35:00,
2013-06-11 17:40:00,83.5,72.3,29.97,WNW,296,9.2,9.2,69,0.00,BKN,,0.02,526.0,WeatherDisplay:10.37,2013-06-11 21:40:00,
2013-06-11 17:45:00,83.5,71.8,29.97,WNW,291,11.5,11.5,68,0.00,BKN,,0.02,566.0,WeatherDisplay:10.37,2013-06-11 21:45:00,
2013-06-11 17:50:00,83.4,70.8,29.97,WNW,297,8.1,8.1,66,0.00,BKN,,0.02,548.0,WeatherDisplay:10.37,2013-06-11 21:50:00,
2013-06-11 17:55:00,83.3,71.6,29.97,WNW,298,4.6,4.6,68,0.00,BKN,,0.02,527.0,WeatherDisplay:10.37,2013-06-11 21:55:00,
2013-06-11 18:00:00,83.4,72.6,29.97,NNW,331,4.6,4.6,70,0.00,BKN,,0.02,415.0,WeatherDisplay:10.37,2013-06-11 22:00:00,
2013-06-11 18:05:00,83.3,71.2,29.97,WNW,292,10.4,10.4,67,0.00,BKN,,0.02,329.0,WeatherDisplay:10.37,2013-06-11 22:05:00,
2013-06-11 18:10:00,83.0,71.8,29.97,NW,317,6.9,6.9,69,0.00,BKN,,0.02,434.0,WeatherDisplay:10.37,2013-06-11 22:10:00,
2013-06-11 18:15:00,82.8,71.2,29.97,West,263,12.7,12.7,68,0.00,BKN,,0.02,434.0,WeatherDisplay:10.37,2013-06-11 22:15:00,
2013-06-11 18:20:00,82.9,71.7,29.97,WNW,294,5.0,5.0,69,0.00,BKN,,0.02,431.0,WeatherDisplay:10.37,2013-06-11 22:20:00,
2013-06-11 18:25:00,83.0,71.8,29.97,WNW,292,13.8,13.8,69,0.00,BKN,,0.02,417.0,WeatherDisplay:10.37,2013-06-11 22:25:00,
2013-06-11 18:30:00,82.9,71.7,29.96,WNW,292,11.5,11.5,69,0.00,BKN,,0.02,413.0,WeatherDisplay:10.37,2013-06-11 22:30:00,
2013-06-11 18:35:00,83.0,72.2,29.96,WNW,292,10.4,10.4,70,0.00,BKN,,0.02,381.0,WeatherDisplay:10.37,2013-06-11 22:35:00,
2013-06-11 18:40:00,83.2,71.5,29.96,West,281,11.5,11.5,68,0.00,BKN,,0.02,367.0,WeatherDisplay:10.37,2013-06-11 22:40:00,
2013-06-11 18:45:00,83.2,72.0,29.96,West,267,11.5,11.5,69,0.00,BKN,,0.02,352.0,WeatherDisplay:10.37,2013-06-11 22:45:00,
2013-06-11 18:50:00,83.0,71.8,29.96,WNW,283,10.4,10.4,69,0.00,BKN,,0.02,272.0,WeatherDisplay:10.37,2013-06-11 22:50:00,
2013-06-11 18:55:00,82.7,71.9,29.96,WNW,294,12.7,12.7,70,0.00,BKN,,0.02,316.0,WeatherDisplay:10.37,2013-06-11 22:55:00,
2013-06-11 19:00:00,82.6,72.2,29.96,WNW,296,6.9,6.9,71,0.00,BKN,,0.02,295.0,WeatherDisplay:10.37,2013-06-11 23:00:00,
2013-06-11 19:05:00,82.7,71.9,29.96,North,355,6.9,6.9,70,0.00,BKN,,0.02,287.0,WeatherDisplay:10.37,2013-06-11 23:05:00,
2013-06-11 19:10:00,82.7,71.9,29.96,WNW,290,4.6,4.6,70,0.00,BKN,,0.02,232.0,WeatherDisplay:10.37,2013-06-11 23:10:00,
2013-06-11 19:15:00,82.7,72.3,29.96,WNW,290,3.0,3.0,71,0.00,BKN,,0.02,248.0,WeatherDisplay:10.37,2013-06-11 23:15:00,
2013-06-11 19:20:00,82.6,71.8,29.96,WNW,289,10.4,10.4,70,0.00,BKN,,0.02,230.0,WeatherDisplay:10.37,2013-06-11 23:20:00,
2013-06-11 19:25:00,82.5,72.6,29.96,NW,304,6.9,6.9,72,0.00,BKN,,0.02,137.0,WeatherDisplay:10.37,2013-06-11 23:25:00,
2013-06-11 19:30:00,82.4,72.0,29.96,NW,304,2.3,2.3,71,0.00,BKN,,0.02,193.0,WeatherDisplay:10.37,2013-06-11 23:30:00,
2013-06-11 19:35:00,82.5,72.6,29.96,NW,304,4.0,4.0,72,0.00,BKN,,0.02,185.0,WeatherDisplay:10.37,2013-06-11 23:35:00,
2013-06-11 19:40:00,82.4,72.0,29.96,NW,305,9.2,9.2,71,0.00,BKN,,0.02,163.0,WeatherDisplay:10.37,2013-06-11 23:40:00,
2013-06-11 19:45:00,82.3,72.0,29.96,NW,305,4.6,4.6,71,0.00,BKN,,0.02,148.0,WeatherDisplay:10.37,2013-06-11 23:45:00,
2013-06-11 19:50:00,82.2,71.9,29.96,NW,305,0.0,1.4,71,0.00,BKN,,0.02,135.0,WeatherDisplay:10.37,2013-06-11 23:50:00,
2013-06-11 19:55:00,82.1,71.8,29.96,NW,305,3.5,3.5,71,0.00,BKN,,0.02,121.0,WeatherDisplay:10.37,2013-06-11 23:55:00,
2013-06-11 20:00:00,81.9,72.0,29.96,NW,323,2.3,2.3,72,0.00,BKN,,0.02,100.0,WeatherDisplay:10.37,2013-06-12 00:00:00,
2013-06-11 20:05:00,81.7,71.8,29.96,NW,322,0.0,0.3,72,0.00,BKN,,0.02,90.0,WeatherDisplay:10.37,2013-06-12 00:05:00,
2013-06-11 20:10:00,81.6,72.1,29.96,NW,319,5.8,5.8,73,0.00,BKN,,0.02,76.0,WeatherDisplay:10.37,2013-06-12 00:10:00,
2013-06-11 20:15:00,81.4,71.5,29.96,NW,319,0.0,0.6,72,0.00,BKN,,0.02,62.0,WeatherDisplay:10.37,2013-06-12 00:15:00,
2013-06-11 20:20:00,81.2,71.3,29.96,NW,319,2.3,0.0,72,0.00,CLR,,0.02,51.0,WeatherDisplay:10.37,2013-06-12 00:20:00,
2013-06-11 20:25:00,81.0,71.5,29.96,NW,319,0.0,0.0,73,0.00,CLR,,0.02,42.0,WeatherDisplay:10.37,2013-06-12 00:25:00,
2013-06-11 20:30:00,80.8,71.3,29.96,NW,319,0.0,0.0,73,0.00,CLR,,0.02,25.0,WeatherDisplay:10.37,2013-06-12 00:30:00,
2013-06-11 20:35:00,80.4,71.3,29.96,NW,319,0.0,0.0,74,0.00,CLR,,0.02,9.0,WeatherDisplay:10.37,2013-06-12 00:35:00,
2013-06-11 20:40:00,80.0,71.4,29.96,NW,319,0.0,0.0,75,0.00,CLR,,0.02,5.0,WeatherDisplay:10.37,2013-06-12 00:40:00,
2013-06-11 20:45:00,79.7,71.5,29.96,NW,319,0.0,0.0,76,0.00,CLR,,0.02,0.0,WeatherDisplay:10.37,2013-06-12 00:45:00,
2013-06-11 20:50:00,79.3,71.5,29.96,NW,319,0.0,0.0,77,0.00,CLR,,0.02,0.0,WeatherDisplay:10.37,2013-06-12 00:50:00,
2013-06-11 20:55:00,78.7,71.3,29.97,NW,319,1.2,0.0,78,0.00,CLR,,0.02,0.0,WeatherDisplay:10.37,2013-06-12 00:55:00,
2013-06-11 21:00:00,78.2,71.5,29.97,NW,319,0.0,0.0,80,0.00,CLR,,0.02,0.0,WeatherDisplay:10.37,2013-06-12 01:00:00,
2013-06-11 21:05:00,77.5,71.2,29.97,NW,319,0.0,0.0,81,0.00,CLR,,0.02,0.0,WeatherDisplay:10.37,2013-06-12 01:05:00,
2013-06-11 21:10:00,76.9,71.3,29.97,NW,319,0.0,0.0,83,0.00,CLR,,0.02,0.0,WeatherDisplay:10.37,2013-06-12 01:10:00,
2013-06-11 21:15:00,76.4,70.9,29.97,NW,319,0.0,0.0,83,0.00,CLR,,0.02,0.0,WeatherDisplay:10.37,2013-06-12 01:15:00,
2013-06-11 21:20:00,75.9,70.7,29.97,NW,319,0.0,0.0,84,0.00,CLR,,0.02,0.0,WeatherDisplay:10.37,2013-06-12 01:20:00,
2013-06-11 21:25:00,75.5,70.7,29.98,NW,319,0.0,0.0,85,0.00,CLR,,0.02,0.0,WeatherDisplay:10.37,2013-06-12 01:25:00,
2013-06-11 21:30:00,75.0,70.5,29.98,NW,319,0.0,0.0,86,0.00,CLR,,0.02,0.0,WeatherDisplay:10.37,2013-06-12 01:30:00,
2013-06-11 21:35:00,74.6,70.5,29.97,NW,319,0.0,0.0,87,0.00,CLR,,0.02,0.0,WeatherDisplay:10.37,2013-06-12 01:35:00,
2013-06-11 21:40:00,74.3,70.2,29.98,NW,319,0.0,0.0,87,0.00,CLR,,0.02,0.0,WeatherDisplay:10.37,2013-06-12 01:40:00,
2013-06-11 21:45:00,74.0,69.9,29.98,NW,319,2.3,0.0,87,0.00,CLR,,0.02,0.0,WeatherDisplay:10.37,2013-06-12 01:45:00,
2013-06-11 21:50:00,73.8,69.7,29.99,NW,319,0.0,0.0,87,0.00,CLR,,0.02,0.0,WeatherDisplay:10.37,2013-06-12 01:50:00,
2013-06-11 21:55:00,73.7,69.6,29.99,NW,319,3.5,3.5,87,0.00,CLR,,0.02,0.0,WeatherDisplay:10.37,2013-06-12 01:55:00,
2013-06-11 22:00:00,73.6,69.5,29.99,NW,319,2.0,4.0,87,0.00,CLR,,0.02,0.0,WeatherDisplay:10.37,2013-06-12 02:00:00,
2013-06-11 22:05:00,73.3,69.5,29.99,NW,319,0.0,0.1,88,0.00,CLR,,0.02,0.0,WeatherDisplay:10.37,2013-06-12 02:05:00,
2013-06-11 22:10:00,73.0,69.2,30.00,NW,319,3.0,5.0,88,0.00,CLR,,0.02,0.0,WeatherDisplay:10.37,2013-06-12 02:10:00,
2013-06-11 22:15:00,72.5,69.1,30.00,NW,319,3.5,3.5,89,0.00,CLR,,0.02,0.0,WeatherDisplay:10.37,2013-06-12 02:15:00,
2013-06-11 22:20:00,72.3,68.9,30.00,NW,319,0.0,0.0,89,0.00,CLR,,0.02,0.0,WeatherDisplay:10.37,2013-06-12 02:20:00,
2013-06-11 22:25:00,72.0,68.9,30.00,NW,319,0.0,0.0,90,0.00,CLR,,0.02,0.0,WeatherDisplay:10.37,2013-06-12 02:25:00,
2013-06-11 22:30:00,71.7,68.6,30.00,NW,319,0.0,0.0,90,0.00,CLR,,0.02,0.0,WeatherDisplay:10.37,2013-06-12 02:30:00,
2013-06-11 22:35:00,71.5,68.7,30.00,NW,319,0.0,0.0,91,0.00,CLR,,0.02,0.0,WeatherDisplay:10.37,2013-06-12 02:35:00,
2013-06-11 22:40:00,71.3,68.5,30.00,NW,319,0.0,0.0,91,0.00,CLR,,0.02,0.0,WeatherDisplay:10.37,2013-06-12 02:40:00,
2013-06-11 22:45:00,71.2,68.8,30.01,NW,319,0.0,0.0,92,0.00,CLR,,0.02,0.0,WeatherDisplay:10.37,2013-06-12 02:45:00,
2013-06-11 22:50:00,71.1,68.7,30.00,NW,319,0.0,0.0,92,0.00,CLR,,0.02,0.0,WeatherDisplay:10.37,2013-06-12 02:50:00,
2013-06-11 22:56:00,70.9,68.8,30.00,NW,319,3.5,3.5,93,0.00,CLR,,0.02,0.0,WeatherDisplay:10.37,2013-06-12 02:56:00,
2013-06-11 23:01:00,70.7,68.6,30.01,NW,319,5.8,5.8,93,0.00,CLR,,0.02,0.0,WeatherDisplay:10.37,2013-06-12 03:01:00,
2013-06-11 23:06:00,70.4,68.3,30.00,NW,319,0.0,0.0,93,0.00,CLR,,0.02,0.0,WeatherDisplay:10.37,2013-06-12 03:06:00,
2013-06-11 23:11:00,70.3,68.2,30.01,NW,319,0.0,0.0,93,0.00,CLR,,0.02,0.0,WeatherDisplay:10.37,2013-06-12 03:11:00,
2013-06-11 23:16:00,70.1,68.0,30.01,NW,319,0.0,0.0,93,0.00,CLR,,0.02,0.0,WeatherDisplay:10.37,2013-06-12 03:16:00,
2013-06-11 23:21:00,69.9,68.1,30.01,NW,319,0.0,0.0,94,0.00,CLR,,0.02,0.0,WeatherDisplay:10.37,2013-06-12 03:21:00,
2013-06-11 23:26:00,69.9,68.1,30.01,NW,319,0.0,0.0,94,0.00,CLR,,0.02,0.0,WeatherDisplay:10.37,2013-06-12 03:26:00,
2013-06-11 23:31:00,69.9,68.1,30.01,NW,319,2.3,2.3,94,0.00,CLR,,0.02,0.0,WeatherDisplay:10.37,2013-06-12 03:31:00,
2013-06-11 23:36:00,69.8,68.0,30.01,NW,319,0.0,0.0,94,0.00,CLR,,0.02,0.0,WeatherDisplay:10.37,2013-06-12 03:36:00,
2013-06-11 23:41:00,69.7,67.9,30.01,NW,319,0.0,0.0,94,0.00,CLR,,0.02,0.0,WeatherDisplay:10.37,2013-06-12 03:41:00,
2013-06-11 23:46:00,69.7,67.9,30.01,NW,319,0.0,0.0,94,0.00,CLR,,0.02,0.0,WeatherDisplay:10.37,2013-06-12 03:46:00,
2013-06-11 23:51:00,69.6,67.8,30.01,NW,319,0.0,0.0,94,0.00,CLR,,0.02,0.0,WeatherDisplay:10.37,2013-06-12 03:51:00,
2013-06-11 23:56:00,69.3,67.2,30.01,NW,319,0.0,0.0,93,0.00,CLR,,0.02,0.0,WeatherDisplay:10.37,2013-06-12 03:56:00,